Weather History for Athens, OH

Change the Weather History Date:

Wednesday, August 7, 2013

  Actual Average (KPKB) Record (KPKB)
Temperature  
Mean Temperature 72 °F 74 °F  
Max Temperature 83 °F 85 °F 103 °F (1918)
Min Temperature 61 °F 64 °F 50 °F (1957)
Degree Days  
Heating Degree Days 0 0  
Month to date heating degree days 0  
Since 1 June heating degree days 20  
Since 1 July heating degree days 1  
Cooling Degree Days 7 9  
Month to date cooling degree days 63  
Year to date cooling degree days 630  
Since 1 June cooling degree days 546  
Growing Degree Days 22 (Base 50)    
Moisture  
Dew Point 67 °F    
Average Humidity 86    
Maximum Humidity 96    
Minimum Humidity 64    
Precipitation  
Precipitation 0.00 in 0.12 in 0.94 in (2006)
Month to date precipitation 0.85  
Year to date precipitation 26.03  
Sea Level Pressure  
Sea Level Pressure 29.96 in    
Wind  
Wind Speed 1 mph (SSW)    
Max Wind Speed 7 mph    
Max Gust Speed 29 mph    
Visibility 9 miles    
Events Rain , Thunderstorm    
T = Trace of Precipitation, MM = Missing Value Source: NWS Daily Summary

Daily Weather History Graph

Daily Weather History Graph

Search for Another Location

Airport:

Trip Planner

Search our weather history database for the weather conditions in past years. The results will help you decide how hot, cold, wet, or windy it might be!

Date:

Astronomy

Aug. 07, 2013 Rise Set
Actual Time 6:34 AM EDT 8:33 PM EDT
Civil Twilight 6:05 AM EDT 9:03 PM EDT
Nautical Twilight 5:29 AM EDT 9:38 PM EDT
Astronomical Twilight 4:51 AM EDT 10:17 PM EDT
Moon 7:21 AM EDT (8/7) 8:41 PM EDT (8/7)
Length of Visible Light 14h 57m
Length of Day
13h 59m
New Moon, 1% of the Moon is Illuminated
Aug 7
New Moon
Aug 14
First Quarter
Aug 20
Full
Aug 28
Last Quarter
Sep 5
New

Hourly Weather History & Observations

Time (EDT) Temp. Heat Index Dew Point Humidity Pressure Visibility Wind Dir Wind Speed Gust Speed Precip Events Conditions
12:15 AM 64.6 °F - 62.4 °F 93% 29.97 in 10.0 mi Calm Calm - N/A   Clear
12:35 AM 64.4 °F - 62.4 °F 93% 29.97 in 7.0 mi Calm Calm - N/A   Clear
12:55 AM 64.0 °F - 62.1 °F 93% 29.98 in 7.0 mi Calm Calm - N/A   Clear
1:15 AM 64.4 °F - 62.6 °F 94% 29.97 in 10.0 mi Calm Calm - N/A   Clear
1:35 AM 63.9 °F - 62.1 °F 94% 29.97 in 10.0 mi Calm Calm - N/A   Clear
1:55 AM 63.5 °F - 61.7 °F 94% 29.97 in 10.0 mi Calm Calm - N/A   Clear
2:15 AM 63.5 °F - 61.7 °F 94% 29.97 in 7.0 mi Calm Calm - N/A   Clear
2:35 AM 63.1 °F - 61.3 °F 94% 29.97 in 7.0 mi Calm Calm - N/A   Clear
2:55 AM 63.1 °F - 61.7 °F 95% 29.98 in 10.0 mi Calm Calm - N/A   Clear
3:15 AM 63.1 °F - 61.5 °F 94% 29.98 in 7.0 mi Calm Calm - N/A   Clear
3:35 AM 62.6 °F - 61.0 °F 94% 29.98 in 10.0 mi Calm Calm - N/A   Clear
3:55 AM 62.6 °F - 60.8 °F 94% 29.98 in 7.0 mi Calm Calm - N/A   Clear
4:15 AM 62.6 °F - 60.8 °F 94% 29.97 in 10.0 mi Calm Calm - N/A   Clear
4:35 AM 62.6 °F - 60.8 °F 94% 29.97 in 10.0 mi Calm Calm - N/A   Clear
4:55 AM 62.6 °F - 61.0 °F 94% 29.97 in 7.0 mi Calm Calm - N/A   Clear
5:15 AM 62.1 °F - 60.4 °F 94% 29.97 in 7.0 mi Calm Calm - N/A   Clear
5:35 AM 61.7 °F - 60.1 °F 94% 29.97 in 7.0 mi Calm Calm - N/A   Clear
5:55 AM 61.7 °F - 60.3 °F 95% 29.97 in 10.0 mi Calm Calm - N/A   Clear
6:15 AM 61.7 °F - 60.1 °F 94% 29.96 in 10.0 mi Calm Calm - N/A   Clear
6:35 AM 61.7 °F - 60.1 °F 94% 29.97 in 7.0 mi Calm Calm - N/A   Clear
6:55 AM 61.2 °F - 59.9 °F 96% 29.97 in 5.0 mi Calm Calm - N/A   Clear
7:15 AM 61.7 °F - 60.1 °F 94% 29.97 in 10.0 mi Calm Calm - N/A   Clear
7:35 AM 62.8 °F - 61.2 °F 94% 29.97 in 7.0 mi Calm Calm - N/A   Clear
7:55 AM 64.2 °F - 62.1 °F 93% 29.97 in 10.0 mi Calm Calm - N/A   Clear
8:15 AM 65.5 °F - 63.0 °F 92% 29.97 in 10.0 mi Calm Calm - N/A   Scattered Clouds
8:35 AM 69.1 °F - 65.3 °F 88% 29.96 in 10.0 mi Calm Calm - N/A   Clear
8:55 AM 69.3 °F - 65.5 °F 88% 29.97 in 10.0 mi Calm Calm - N/A   Clear
9:15 AM 72.0 °F - 66.7 °F 84% 29.98 in 10.0 mi Calm Calm - N/A   Scattered Clouds
9:35 AM 73.0 °F - 67.5 °F 83% 29.98 in 10.0 mi Calm Calm - N/A   Mostly Cloudy
9:55 AM 73.9 °F - 67.8 °F 81% 29.99 in 10.0 mi Calm Calm - N/A   Overcast
10:15 AM 74.5 °F - 68.4 °F 81% 29.99 in 10.0 mi Calm Calm - N/A   Overcast
10:35 AM 75.4 °F - 68.9 °F 80% 29.99 in 10.0 mi SW 3.5 mph - N/A   Mostly Cloudy
10:55 AM 78.3 °F - 69.3 °F 74% 29.98 in 10.0 mi SSW 5.8 mph - N/A   Scattered Clouds
11:15 AM 79.2 °F - 70.0 °F 73% 29.98 in 10.0 mi SSW 5.8 mph - N/A   Scattered Clouds
11:35 AM 81.1 °F 85.2 °F 71.2 °F 72% 29.98 in 10.0 mi South 6.9 mph - N/A   Clear
11:55 AM 82.2 °F 86.4 °F 70.7 °F 68% 29.98 in 10.0 mi South 6.9 mph - N/A   Scattered Clouds
12:15 PM 82.0 °F 86.3 °F 71.1 °F 69% 29.97 in 10.0 mi South 3.5 mph - N/A   Scattered Clouds
12:35 PM 82.2 °F 86.4 °F 70.7 °F 68% 29.97 in 10.0 mi SW 5.8 mph - N/A   Scattered Clouds
12:55 PM 81.9 °F 86.0 °F 70.9 °F 69% 29.96 in 10.0 mi SSW 5.8 mph - N/A   Scattered Clouds
1:15 PM 83.3 °F 88.4 °F 72.0 °F 68% 29.95 in 10.0 mi SSW 5.8 mph - N/A   Scattered Clouds
1:35 PM 83.8 °F 88.3 °F 70.5 °F 64% 29.95 in 10.0 mi SW 6.9 mph - N/A   Clear
1:55 PM 83.7 °F 88.3 °F 70.7 °F 65% 29.95 in 10.0 mi South 4.6 mph - N/A   Scattered Clouds
2:15 PM 81.3 °F 86.1 °F 72.7 °F 75% 29.94 in 10.0 mi SSE 3.5 mph - N/A   Mostly Cloudy
2:35 PM 81.7 °F 87.1 °F 73.4 °F 76% 29.95 in 10.0 mi South 4.6 mph - N/A Thunderstorm Thunderstorm
2:55 PM 69.8 °F - 64.0 °F 82% 29.97 in 1.8 mi West 4.6 mph 28.8 mph N/A Rain , Thunderstorm Heavy Thunderstorms and Rain
3:15 PM 71.8 °F - 65.8 °F 81% 29.95 in 10.0 mi Calm Calm - N/A Rain , Thunderstorm Light Thunderstorms and Rain
3:35 PM 73.4 °F - 67.6 °F 82% 29.94 in 10.0 mi Calm Calm - N/A   Scattered Clouds
3:55 PM 73.0 °F - 67.8 °F 84% 29.95 in 7.0 mi Calm Calm - N/A Rain , Thunderstorm Light Thunderstorms and Rain
4:15 PM 74.3 °F - 68.7 °F 83% 29.94 in 10.0 mi West 3.5 mph - N/A Rain Light Rain
4:35 PM 75.4 °F - 70.7 °F 85% 29.93 in 10.0 mi Calm Calm - N/A   Clear
4:55 PM 78.3 °F - 72.1 °F 81% 29.93 in 10.0 mi Calm Calm - N/A   Clear
5:15 PM 78.6 °F - 72.5 °F 81% 29.93 in 10.0 mi Calm Calm - N/A   Clear
5:35 PM 80.2 °F 84.6 °F 73.2 °F 79% 29.93 in 10.0 mi Calm Calm - N/A   Scattered Clouds
5:55 PM 80.1 °F 84.4 °F 73.4 °F 80% 29.94 in 10.0 mi SSW 3.5 mph - N/A   Mostly Cloudy
6:15 PM 79.9 °F - 71.6 °F 76% 29.93 in 10.0 mi SSE 3.5 mph - N/A   Scattered Clouds
6:35 PM 78.3 °F - 71.8 °F 80% 29.93 in 10.0 mi SE 4.6 mph - N/A   Clear
6:55 PM 78.6 °F - 71.8 °F 79% 29.92 in 10.0 mi South 4.6 mph - N/A   Clear
7:15 PM 78.6 °F - 71.2 °F 78% 29.93 in 10.0 mi South 3.5 mph - N/A   Scattered Clouds
7:35 PM 78.1 °F - 71.6 °F 80% 29.94 in 10.0 mi Calm Calm - N/A   Scattered Clouds
7:55 PM 77.4 °F - 71.2 °F 81% 29.94 in 10.0 mi Calm Calm - N/A   Scattered Clouds
8:15 PM 77.0 °F - 71.1 °F 82% 29.94 in 10.0 mi Calm Calm - N/A   Scattered Clouds
8:35 PM 76.1 °F - 71.6 °F 86% 29.94 in 10.0 mi Calm Calm - N/A   Clear
8:55 PM 75.2 °F - 71.6 °F 89% 29.94 in 10.0 mi Calm Calm - N/A   Clear
9:15 PM 74.3 °F - 71.6 °F 91% 29.94 in 10.0 mi Calm Calm - N/A   Clear
9:35 PM 72.9 °F - 70.7 °F 93% 29.94 in 7.0 mi Calm Calm - N/A   Clear
9:55 PM 72.9 °F - 70.9 °F 93% 29.95 in 7.0 mi Calm Calm - N/A   Scattered Clouds
10:15 PM 72.5 °F - 70.7 °F 94% 29.96 in 10.0 mi Calm Calm - N/A   Scattered Clouds
10:35 PM 72.3 °F - 70.3 °F 93% 29.96 in 10.0 mi Calm Calm - N/A   Scattered Clouds
10:55 PM 72.7 °F - 70.7 °F 93% 29.97 in 10.0 mi Calm Calm - N/A   Scattered Clouds
11:15 PM 71.2 °F - 69.1 °F 93% 29.97 in 7.0 mi Calm Calm - N/A   Clear
11:35 PM 72.5 °F - 70.3 °F 93% 29.97 in 10.0 mi SSE 3.5 mph - N/A   Clear
11:55 PM 72.9 °F - 70.5 °F 92% 29.96 in 10.0 mi Calm Calm - N/A   Clear